Showing default

OPS 7034 (TRANSIT 18), 3133

Orbit data source: Space-Track

OPS 7034 (TRANSIT 18), 3133 is a payload satellite owned by USN NAVAIR (US) in LEO that was launched on Sat, 02 Mar 1968 UTC via an SCOUT A launch vehicle from the Air Force Western Test Range (AFWTR). Payload-class satellites include a variety of spacecraft equipped with specific instruments for various scientific and technological missions. These include communications satellites like Starlink; space stations such as the ISS; scientific satellites like the Hubble; Earth observation satellites from companies like Planet Labs, Umbra, and HawkEye 360; GPS; miniature CubeSats for education and research; and military/defense satellites.

Loading next visibility...
Identifier
3133, 1968-012A
Orbit
LEO
Country
Flag of USUS
Related business
Manufacturer
RCA/East Windsor
Mission
Spacecraft
Bus & Motor
TRANSIT 5, Unknown motor
Mass
60 kg wet, 60 kg dry
Launch date (UTC)
1968-03-02 (58 years ago)
Launch vehicle
SCOUT A
Launch site
Air Force Western Test Range (AFWTR)
Object type
Payload
Rocket body
Debris
Shape & HBR
Unknown
Radar Cross Section
Large (>1 m²)

Expand to show TLE details & history
Last TLE update: 14 hours ago

TLE from 14 hours ago
0 OPS 7034 (TRANSIT 18)
1 03133U 68012A   25292.20825963  .00000211  00000-0  30589-3 0  9994
2 03133  90.0206 273.5055 0072969 330.0475  40.3534 13.51548309561821
Epoch: 2025-10-19T04:59Z
TLE epoch observation values (Epoch: 2025-10-19T04:59:53.632Z)
Latitude
10.89612°
Longitude
170.59986°
Altitude
1,027.533 km
Speed
7.359 km/s
True Right ascension
18h 14m 00s
True Declination
10° 50' 05"
Sunlit
Object was in daylight at epoch
Visualization orbit readout
Latitude
Unknown
Longitude
Unknown
Altitude
Unknown
Speed
Unknown
Apparent Right ascension
Unknown
Apparent Declination
Unknown
Sunlit
N/A
Visualization observer readout
Local Sidereal Time
13:42:11
Azimuth
Unknown
Elevation
Unknown
Doppler factor
Unknown
Orbital elements
Apogee altitude
1,117.916 km
Perigee altitude
1,009.313 km
Semi-major axis
7,441.752 km
Eccentricity
0.0073
Inclination
90.0206°
RAAN
273.5055°
Arg. of periapsis
330.0475°
True anomaly
40.8986°
Mean anomaly
40.3534°
Eccentric anomaly
40.62562°
Mean motion
3.38089 °/min
Orbital period
106.48 mins
BSTAR
0.00030589
Loading maneuver chart data...
Computing Atmospheric mass density...
Loading historical data...
Loading historical data...
Loading historical data...
Loading historical data...
Loading historical data...
Loading historical data...
Loading historical data...

Documentation

Showing up to 5 results
|